Time,TemperatureF,DewpointF,PressureIn,WindDirection,WindDirectionDegrees,WindSpeedMPH,WindSpeedGustMPH,Humidity,HourlyPrecipIn,Conditions,Clouds,dailyrainin,SoftwareType,DateUTC
2013-02-01 07:24:00,23.0,13.0,30.00,WNW,284,11.0,19.0,65,0.00,,,0.00,Wunderground v.1.15,2013-02-01 12:24:00,
2013-02-01 07:25:00,22.9,12.9,30.00,West,268,11.0,19.0,65,0.00,,,0.00,Wunderground v.1.15,2013-02-01 12:25:00,
2013-02-01 07:29:00,22.7,12.7,30.01,WNW,285,11.0,19.0,65,0.00,,,0.00,Wunderground v.1.15,2013-02-01 12:29:00,
2013-02-01 07:30:00,22.7,12.3,30.01,West,281,12.0,22.0,64,0.00,,,0.00,Wunderground v.1.15,2013-02-01 12:30:00,
2013-02-01 07:35:00,22.5,11.4,30.01,West,275,13.0,14.0,62,0.00,,,0.00,Wunderground v.1.15,2013-02-01 12:35:00,
2013-02-01 07:41:00,22.4,11.0,30.02,WNW,286,14.0,17.0,61,0.00,,,0.00,Wunderground v.1.15,2013-02-01 12:41:00,
2013-02-01 07:46:00,22.2,10.8,30.03,NW,314,14.0,19.0,61,0.00,,,0.00,Wunderground v.1.15,2013-02-01 12:46:00,
2013-02-01 07:51:00,22.0,10.6,30.03,WNW,283,13.0,19.0,61,0.00,,,0.00,Wunderground v.1.15,2013-02-01 12:51:00,
2013-02-01 07:56:00,22.0,10.2,30.04,West,260,12.0,15.0,60,0.00,,,0.00,Wunderground v.1.15,2013-02-01 12:56:00,
2013-02-01 08:02:00,22.0,9.8,30.04,WNW,289,14.0,16.0,59,0.00,,,0.00,Wunderground v.1.15,2013-02-01 13:02:00,
2013-02-01 08:07:00,22.0,9.8,30.05,WNW,291,14.0,17.0,59,0.00,,,0.00,Wunderground v.1.15,2013-02-01 13:07:00,
2013-02-01 08:12:00,22.0,10.2,30.05,WNW,288,14.0,20.0,60,0.00,,,0.00,Wunderground v.1.15,2013-02-01 13:12:00,
2013-02-01 08:17:00,22.0,9.8,30.06,NW,306,15.0,20.0,59,0.00,,,0.00,Wunderground v.1.15,2013-02-01 13:17:00,
2013-02-01 08:22:00,22.1,10.7,30.06,NW,317,13.0,14.0,61,0.00,,,0.00,Wunderground v.1.15,2013-02-01 13:22:00,
2013-02-01 08:27:00,22.3,11.2,30.07,West,280,9.0,15.0,62,0.00,,,0.00,Wunderground v.1.15,2013-02-01 13:27:00,
2013-02-01 08:33:00,21.9,10.9,30.08,West,275,12.0,14.0,62,0.00,,,0.00,Wunderground v.1.15,2013-02-01 13:33:00,
2013-02-01 08:38:00,21.3,10.3,30.08,WNW,295,14.0,16.0,62,0.00,,,0.00,Wunderground v.1.15,2013-02-01 13:38:00,
2013-02-01 08:43:00,21.0,9.3,30.09,WNW,299,15.0,18.0,60,0.00,,,0.00,Wunderground v.1.15,2013-02-01 13:43:00,
2013-02-01 08:49:00,20.8,9.5,30.09,NW,306,14.0,20.0,61,0.00,,,0.00,Wunderground v.1.15,2013-02-01 13:49:00,
2013-02-01 08:54:00,20.9,9.5,30.09,West,271,12.0,14.0,61,0.00,,,0.00,Wunderground v.1.15,2013-02-01 13:54:00,
2013-02-01 08:59:00,21.2,9.1,30.09,WNW,303,11.0,20.0,59,0.00,,,0.00,Wunderground v.1.15,2013-02-01 13:59:00,
2013-02-01 09:05:00,21.4,8.9,30.10,West,259,12.0,19.0,58,0.00,,,0.00,Wunderground v.1.15,2013-02-01 14:05:00,
2013-02-01 09:10:00,21.4,8.1,30.11,NW,313,12.0,13.0,56,0.00,,,0.00,Wunderground v.1.15,2013-02-01 14:10:00,
2013-02-01 09:16:00,21.6,9.1,30.12,WNW,303,11.0,15.0,58,0.00,,,0.00,Wunderground v.1.15,2013-02-01 14:16:00,
2013-02-01 09:21:00,21.6,8.7,30.12,WNW,288,12.0,23.0,57,0.00,,,0.00,Wunderground v.1.15,2013-02-01 14:21:00,
2013-02-01 09:26:00,21.4,8.5,30.12,WNW,290,13.0,23.0,57,0.00,,,0.00,Wunderground v.1.15,2013-02-01 14:26:00,
2013-02-01 09:31:00,21.3,8.4,30.12,WNW,291,14.0,17.0,57,0.00,,,0.00,Wunderground v.1.15,2013-02-01 14:31:00,
2013-02-01 09:36:00,21.2,8.7,30.13,WNW,282,14.0,17.0,58,0.00,,,0.00,Wunderground v.1.15,2013-02-01 14:36:00,
2013-02-01 09:42:00,21.1,9.0,30.13,WSW,256,12.0,15.0,59,0.00,,,0.00,Wunderground v.1.15,2013-02-01 14:42:00,
2013-02-01 09:47:00,20.9,8.8,30.13,West,277,12.0,17.0,59,0.00,,,0.00,Wunderground v.1.15,2013-02-01 14:47:00,
2013-02-01 09:52:00,20.8,8.7,30.14,NW,311,11.0,12.0,59,0.00,,,0.00,Wunderground v.1.15,2013-02-01 14:52:00,
2013-02-01 09:59:00,20.8,8.7,30.14,WSW,250,10.0,16.0,59,0.00,,,0.00,Wunderground v.1.15,2013-02-01 14:59:00,
2013-02-01 10:04:00,20.6,8.5,30.14,West,265,12.0,18.0,59,0.00,,,0.00,Wunderground v.1.15,2013-02-01 15:04:00,
2013-02-01 10:09:00,21.0,9.6,30.15,WNW,283,13.0,18.0,61,0.00,,,0.00,Wunderground v.1.15,2013-02-01 15:09:00,
2013-02-01 10:15:00,21.4,9.3,30.15,West,280,13.0,18.0,59,0.00,,,0.00,Wunderground v.1.15,2013-02-01 15:15:00,
2013-02-01 10:20:00,21.4,9.7,30.15,West,275,14.0,14.0,60,0.00,,,0.00,Wunderground v.1.15,2013-02-01 15:20:00,
2013-02-01 10:25:00,21.6,9.5,30.15,West,259,14.0,16.0,59,0.00,,,0.00,Wunderground v.1.15,2013-02-01 15:25:00,
2013-02-01 10:31:00,21.7,8.8,30.15,WNW,284,13.0,13.0,57,0.00,,,0.00,Wunderground v.1.15,2013-02-01 15:31:00,
2013-02-01 10:36:00,21.6,9.1,30.16,NW,309,13.0,17.0,58,0.00,,,0.00,Wunderground v.1.15,2013-02-01 15:36:00,
2013-02-01 10:41:00,21.2,7.5,30.16,WNW,302,13.0,17.0,55,0.00,,,0.00,Wunderground v.1.15,2013-02-01 15:41:00,
2013-02-01 10:47:00,20.4,7.2,30.17,NW,313,15.0,21.0,56,0.00,,,0.00,Wunderground v.1.15,2013-02-01 15:47:00,
2013-02-01 10:52:00,20.5,8.0,30.17,WNW,292,15.0,16.0,58,0.00,,,0.00,Wunderground v.1.15,2013-02-01 15:52:00,
2013-02-01 10:57:00,21.0,8.5,30.17,WNW,291,12.0,16.0,58,0.00,,,0.00,Wunderground v.1.15,2013-02-01 15:57:00,
2013-02-01 11:03:00,20.9,8.4,30.18,WNW,291,12.0,13.0,58,0.00,,,0.00,Wunderground v.1.15,2013-02-01 16:03:00,
2013-02-01 11:08:00,21.1,8.2,30.18,NW,319,13.0,24.0,57,0.00,,,0.00,Wunderground v.1.15,2013-02-01 16:08:00,
2013-02-01 11:14:00,20.7,8.2,30.19,NNW,336,14.0,18.0,58,0.00,,,0.00,Wunderground v.1.15,2013-02-01 16:14:00,
2013-02-01 11:19:00,21.0,8.5,30.19,West,274,13.0,18.0,58,0.00,,,0.00,Wunderground v.1.15,2013-02-01 16:19:00,
2013-02-01 11:24:00,20.9,8.0,30.19,NW,310,13.0,18.0,57,0.00,,,0.00,Wunderground v.1.15,2013-02-01 16:24:00,
2013-02-01 11:29:00,21.0,8.5,30.19,WNW,287,13.0,18.0,58,0.00,,,0.00,Wunderground v.1.15,2013-02-01 16:29:00,
2013-02-01 11:34:00,21.6,9.5,30.19,West,269,12.0,18.0,59,0.00,,,0.00,Wunderground v.1.15,2013-02-01 16:34:00,
2013-02-01 11:40:00,21.8,9.3,30.19,WNW,298,14.0,14.0,58,0.00,,,0.00,Wunderground v.1.15,2013-02-01 16:40:00,
2013-02-01 11:45:00,21.4,7.7,30.20,West,271,15.0,31.0,55,0.00,,,0.00,Wunderground v.1.15,2013-02-01 16:45:00,
2013-02-01 11:50:00,21.1,7.8,30.20,NW,319,15.0,15.0,56,0.00,,,0.00,Wunderground v.1.15,2013-02-01 16:50:00,
2013-02-01 11:55:00,21.2,7.5,30.20,WNW,293,14.0,16.0,55,0.00,,,0.00,Wunderground v.1.15,2013-02-01 16:55:00,
2013-02-01 12:01:00,21.6,8.7,30.20,WNW,294,14.0,15.0,57,0.00,,,0.00,Wunderground v.1.15,2013-02-01 17:01:00,
2013-02-01 12:06:00,22.1,8.8,30.20,WNW,294,14.0,16.0,56,0.00,,,0.00,Wunderground v.1.15,2013-02-01 17:06:00,
2013-02-01 12:12:00,22.4,9.8,30.20,West,271,13.0,13.0,58,0.00,,,0.00,Wunderground v.1.15,2013-02-01 17:12:00,
2013-02-01 12:17:00,22.4,9.1,30.20,West,262,13.0,18.0,56,0.00,,,0.00,Wunderground v.1.15,2013-02-01 17:17:00,
2013-02-01 12:23:00,22.7,9.3,30.20,NW,304,14.0,17.0,56,0.00,,,0.00,Wunderground v.1.15,2013-02-01 17:23:00,
2013-02-01 12:28:00,23.0,9.6,30.20,WNW,296,14.0,19.0,56,0.00,,,0.00,Wunderground v.1.15,2013-02-01 17:28:00,
2013-02-01 12:34:00,22.7,9.3,30.20,West,276,14.0,17.0,56,0.00,,,0.00,Wunderground v.1.15,2013-02-01 17:34:00,
2013-02-01 12:39:00,23.2,9.4,30.20,West,275,14.0,18.0,55,0.00,,,0.00,Wunderground v.1.15,2013-02-01 17:39:00,
2013-02-01 12:44:00,22.8,8.2,30.20,West,264,16.0,26.0,53,0.00,,,0.00,Wunderground v.1.15,2013-02-01 17:44:00,
2013-02-01 12:50:00,22.2,7.2,30.20,NW,307,17.0,17.0,52,0.00,,,0.00,Wunderground v.1.15,2013-02-01 17:50:00,
2013-02-01 12:55:00,22.3,8.6,30.20,WSW,251,15.0,18.0,55,0.00,,,0.00,Wunderground v.1.15,2013-02-01 17:55:00,
2013-02-01 13:01:00,22.6,8.0,30.20,WNW,301,13.0,13.0,53,0.00,,,0.00,Wunderground v.1.15,2013-02-01 18:01:00,
2013-02-01 13:06:00,22.2,7.2,30.20,WNW,303,14.0,18.0,52,0.00,,,0.00,Wunderground v.1.15,2013-02-01 18:06:00,
2013-02-01 13:11:00,22.4,7.8,30.20,NW,318,14.0,14.0,53,0.00,,,0.00,Wunderground v.1.15,2013-02-01 18:11:00,
2013-02-01 13:17:00,22.6,8.4,30.21,West,260,14.0,22.0,54,0.00,,,0.00,Wunderground v.1.15,2013-02-01 18:17:00,
2013-02-01 13:22:00,22.6,8.8,30.21,WNW,284,15.0,16.0,55,0.00,,,0.00,Wunderground v.1.15,2013-02-01 18:22:00,
2013-02-01 13:29:00,22.5,8.7,30.21,West,274,15.0,23.0,55,0.00,,,0.00,Wunderground v.1.15,2013-02-01 18:29:00,
2013-02-01 13:34:00,22.4,8.7,30.21,West,278,16.0,20.0,55,0.00,,,0.00,Wunderground v.1.15,2013-02-01 18:34:00,
2013-02-01 13:39:00,22.5,8.7,30.21,NW,311,14.0,20.0,55,0.00,,,0.00,Wunderground v.1.15,2013-02-01 18:39:00,
2013-02-01 13:45:00,22.5,8.3,30.21,West,278,13.0,14.0,54,0.00,,,0.00,Wunderground v.1.15,2013-02-01 18:45:00,
2013-02-01 13:50:00,22.6,8.0,30.22,West,267,14.0,17.0,53,0.00,,,0.00,Wunderground v.1.15,2013-02-01 18:50:00,
2013-02-01 13:56:00,22.5,7.9,30.22,NW,315,14.0,19.0,53,0.00,,,0.00,Wunderground v.1.15,2013-02-01 18:56:00,
2013-02-01 14:01:00,22.2,7.2,30.22,West,271,14.0,15.0,52,0.00,,,0.00,Wunderground v.1.15,2013-02-01 19:01:00,
2013-02-01 14:07:00,22.0,6.6,30.23,WNW,290,15.0,17.0,51,0.00,,,0.00,Wunderground v.1.15,2013-02-01 19:07:00,
2013-02-01 14:12:00,21.5,6.6,30.23,WNW,288,15.0,16.0,52,0.00,,,0.00,Wunderground v.1.15,2013-02-01 19:12:00,
2013-02-01 14:17:00,22.2,7.6,30.23,WSW,257,13.0,17.0,53,0.00,,,0.00,Wunderground v.1.15,2013-02-01 19:17:00,
2013-02-01 14:24:00,22.5,7.9,30.23,WNW,299,13.0,16.0,53,0.00,,,0.00,Wunderground v.1.15,2013-02-01 19:24:00,
2013-02-01 14:29:00,22.7,8.5,30.23,NW,311,12.0,19.0,54,0.00,,,0.00,Wunderground v.1.15,2013-02-01 19:29:00,
2013-02-01 14:34:00,22.7,8.5,30.24,WNW,296,11.0,13.0,54,0.00,,,0.00,Wunderground v.1.15,2013-02-01 19:34:00,
2013-02-01 14:39:00,23.1,8.5,30.24,WNW,300,11.0,16.0,53,0.00,,,0.00,Wunderground v.1.15,2013-02-01 19:39:00,
2013-02-01 14:45:00,23.5,8.9,30.24,WNW,302,10.0,16.0,53,0.00,,,0.00,Wunderground v.1.15,2013-02-01 19:45:00,
2013-02-01 14:50:00,22.7,8.1,30.24,WNW,300,11.0,11.0,53,0.00,,,0.00,Wunderground v.1.15,2013-02-01 19:50:00,
2013-02-01 14:56:00,22.4,7.8,30.24,WNW,294,10.0,14.0,53,0.00,,,0.00,Wunderground v.1.15,2013-02-01 19:56:00,
2013-02-01 15:01:00,22.6,8.4,30.24,West,264,10.0,10.0,54,0.00,,,0.00,Wunderground v.1.15,2013-02-01 20:01:00,
2013-02-01 15:06:00,23.2,9.0,30.25,West,281,10.0,13.0,54,0.00,,,0.00,Wunderground v.1.15,2013-02-01 20:06:00,
2013-02-01 15:12:00,22.6,7.6,30.25,West,272,12.0,22.0,52,0.00,,,0.00,Wunderground v.1.15,2013-02-01 20:12:00,
2013-02-01 15:17:00,22.1,7.1,30.25,NW,310,15.0,22.0,52,0.00,,,0.00,Wunderground v.1.15,2013-02-01 20:17:00,
2013-02-01 15:22:00,21.6,6.2,30.25,West,265,15.0,21.0,51,0.00,,,0.00,Wunderground v.1.15,2013-02-01 20:22:00,
2013-02-01 15:28:00,21.6,6.2,30.26,WNW,290,15.0,21.0,51,0.00,,,0.00,Wunderground v.1.15,2013-02-01 20:28:00,
2013-02-01 15:34:00,21.4,6.0,30.26,West,276,15.0,21.0,51,0.00,,,0.00,Wunderground v.1.15,2013-02-01 20:34:00,
2013-02-01 15:39:00,21.6,6.2,30.26,WNW,303,15.0,21.0,51,0.00,,,0.00,Wunderground v.1.15,2013-02-01 20:39:00,
2013-02-01 15:44:00,21.6,6.2,30.26,West,277,13.0,20.0,51,0.00,,,0.00,Wunderground v.1.15,2013-02-01 20:44:00,
2013-02-01 15:49:00,21.5,6.6,30.27,NW,304,14.0,22.0,52,0.00,,,0.00,Wunderground v.1.15,2013-02-01 20:49:00,
2013-02-01 15:55:00,21.3,6.4,30.27,West,275,15.0,22.0,52,0.00,,,0.00,Wunderground v.1.15,2013-02-01 20:55:00,
2013-02-01 16:00:00,21.2,5.9,30.27,WNW,284,15.0,15.0,51,0.00,,,0.00,Wunderground v.1.15,2013-02-01 21:00:00,
2013-02-01 16:06:00,21.3,6.8,30.27,West,269,13.0,20.0,53,0.00,,,0.00,Wunderground v.1.15,2013-02-01 21:06:00,
2013-02-01 16:11:00,21.3,6.4,30.27,West,275,12.0,19.0,52,0.00,,,0.00,Wunderground v.1.15,2013-02-01 21:11:00,
2013-02-01 16:16:00,21.3,6.8,30.28,West,271,12.0,19.0,53,0.00,,,0.00,Wunderground v.1.15,2013-02-01 21:16:00,
2013-02-01 16:22:00,21.3,6.8,30.28,NW,326,12.0,13.0,53,0.00,,,0.00,Wunderground v.1.15,2013-02-01 21:22:00,
2013-02-01 16:27:00,21.3,6.8,30.28,WNW,292,10.0,13.0,53,0.00,,,0.00,Wunderground v.1.15,2013-02-01 21:27:00,
2013-02-01 16:33:00,21.1,6.2,30.28,West,274,8.0,13.0,52,0.00,,,0.00,Wunderground v.1.15,2013-02-01 21:33:00,
2013-02-01 16:38:00,20.9,6.4,30.29,WNW,292,9.0,13.0,53,0.00,,,0.00,Wunderground v.1.15,2013-02-01 21:38:00,
2013-02-01 16:44:00,20.8,6.3,30.29,WNW,296,8.0,10.0,53,0.00,,,0.00,Wunderground v.1.15,2013-02-01 21:44:00,
2013-02-01 16:50:00,20.3,6.3,30.29,NW,307,7.0,13.0,54,0.00,,,0.00,Wunderground v.1.15,2013-02-01 21:50:00,
2013-02-01 16:55:00,20.0,6.0,30.30,WNW,292,7.0,15.0,54,0.00,,,0.00,Wunderground v.1.15,2013-02-01 21:55:00,
2013-02-01 17:00:00,19.8,6.2,30.30,NW,307,10.0,11.0,55,0.00,,,0.00,Wunderground v.1.15,2013-02-01 22:00:00,
2013-02-01 17:06:00,19.7,6.5,30.30,West,259,8.0,11.0,56,0.00,,,0.00,Wunderground v.1.15,2013-02-01 22:06:00,
2013-02-01 17:11:00,19.7,6.1,30.30,WSW,255,8.0,10.0,55,0.00,,,0.00,Wunderground v.1.15,2013-02-01 22:11:00,
2013-02-01 17:16:00,19.6,6.0,30.30,WNW,285,10.0,14.0,55,0.00,,,0.00,Wunderground v.1.15,2013-02-01 22:16:00,
2013-02-01 17:22:00,19.4,6.2,30.31,WSW,251,10.0,11.0,56,0.00,,,0.00,Wunderground v.1.15,2013-02-01 22:22:00,
2013-02-01 17:27:00,19.2,5.7,30.31,WNW,292,11.0,17.0,55,0.00,,,0.00,Wunderground v.1.15,2013-02-01 22:27:00,
2013-02-01 17:33:00,19.0,5.9,30.31,WNW,298,11.0,13.0,56,0.00,,,0.00,Wunderground v.1.15,2013-02-01 22:33:00,
2013-02-01 17:38:00,19.0,6.3,30.32,WNW,297,9.0,13.0,57,0.00,,,0.00,Wunderground v.1.15,2013-02-01 22:38:00,
2013-02-01 17:44:00,18.8,6.1,30.32,WNW,290,8.0,10.0,57,0.00,,,0.00,Wunderground v.1.15,2013-02-01 22:44:00,
2013-02-01 17:49:00,18.6,5.9,30.32,West,281,7.0,13.0,57,0.00,,,0.00,Wunderground v.1.15,2013-02-01 22:49:00,
2013-02-01 17:55:00,18.5,6.2,30.32,WSW,237,8.0,16.0,58,0.00,,,0.00,Wunderground v.1.15,2013-02-01 22:55:00,
2013-02-01 18:01:00,18.4,6.1,30.33,NW,315,7.0,7.0,58,0.00,,,0.00,Wunderground v.1.15,2013-02-01 23:01:00,
2013-02-01 18:06:00,18.3,5.6,30.33,WSW,257,6.0,8.0,57,0.00,,,0.00,Wunderground v.1.15,2013-02-01 23:06:00,
2013-02-01 18:11:00,18.2,5.9,30.33,WNW,296,5.0,6.0,58,0.00,,,0.00,Wunderground v.1.15,2013-02-01 23:11:00,
2013-02-01 18:17:00,18.1,5.8,30.33,West,260,5.0,8.0,58,0.00,,,0.00,Wunderground v.1.15,2013-02-01 23:17:00,
2013-02-01 18:22:00,18.2,6.6,30.34,WSW,254,5.0,10.0,60,0.00,,,0.00,Wunderground v.1.15,2013-02-01 23:22:00,
2013-02-01 18:28:00,18.2,6.3,30.34,West,264,5.0,10.0,59,0.00,,,0.00,Wunderground v.1.15,2013-02-01 23:28:00,
2013-02-01 18:33:00,18.1,5.8,30.34,WSW,258,4.0,6.0,58,0.00,,,0.00,Wunderground v.1.15,2013-02-01 23:33:00,
2013-02-01 18:38:00,18.0,5.7,30.35,West,281,6.0,12.0,58,0.00,,,0.00,Wunderground v.1.15,2013-02-01 23:38:00,
2013-02-01 18:44:00,17.9,5.6,30.35,West,279,8.0,9.0,58,0.00,,,0.00,Wunderground v.1.15,2013-02-01 23:44:00,
2013-02-01 18:49:00,17.7,5.8,30.35,West,279,5.0,9.0,59,0.00,,,0.00,Wunderground v.1.15,2013-02-01 23:49:00,
2013-02-01 18:55:00,17.6,5.7,30.35,WNW,294,4.0,7.0,59,0.00,,,0.00,Wunderground v.1.15,2013-02-01 23:55:00,
2013-02-01 19:01:00,17.6,6.1,30.36,WNW,284,6.0,7.0,60,0.00,,,0.00,Wunderground v.1.15,2013-02-02 00:01:00,
2013-02-01 19:06:00,17.6,6.1,30.36,WNW,295,7.0,7.0,60,0.00,,,0.00,Wunderground v.1.15,2013-02-02 00:06:00,
2013-02-01 19:11:00,17.5,6.0,30.36,West,261,6.0,8.0,60,0.00,,,0.00,Wunderground v.1.15,2013-02-02 00:11:00,
2013-02-01 19:17:00,17.4,5.9,30.36,WNW,292,5.0,8.0,60,0.00,,,0.00,Wunderground v.1.15,2013-02-02 00:17:00,
2013-02-01 19:22:00,17.1,5.9,30.36,WNW,286,5.0,6.0,61,0.00,,,0.00,Wunderground v.1.15,2013-02-02 00:22:00,
2013-02-01 19:27:00,17.1,5.6,30.36,WNW,299,6.0,12.0,60,0.00,,,0.00,Wunderground v.1.15,2013-02-02 00:27:00,
2013-02-01 19:33:00,17.1,5.2,30.37,WNW,282,7.0,10.0,59,0.00,,,0.00,Wunderground v.1.15,2013-02-02 00:33:00,
2013-02-01 19:38:00,17.1,5.6,30.37,West,277,5.0,10.0,60,0.00,,,0.00,Wunderground v.1.15,2013-02-02 00:38:00,
2013-02-01 19:44:00,17.1,5.6,30.38,WNW,287,5.0,8.0,60,0.00,,,0.00,Wunderground v.1.15,2013-02-02 00:44:00,
2013-02-01 19:49:00,17.0,5.1,30.38,NW,313,5.0,14.0,59,0.00,,,0.00,Wunderground v.1.15,2013-02-02 00:49:00,
2013-02-01 19:54:00,16.9,5.4,30.38,WNW,288,6.0,8.0,60,0.00,,,0.00,Wunderground v.1.15,2013-02-02 00:54:00,
2013-02-01 20:00:00,16.8,5.3,30.38,WNW,294,6.0,9.0,60,0.00,,,0.00,Wunderground v.1.15,2013-02-02 01:00:00,
2013-02-01 20:05:00,16.7,5.2,30.38,NW,317,5.0,9.0,60,0.00,,,0.00,Wunderground v.1.15,2013-02-02 01:05:00,
2013-02-01 20:11:00,16.5,5.0,30.38,WNW,291,6.0,10.0,60,0.00,,,0.00,Wunderground v.1.15,2013-02-02 01:11:00,
2013-02-01 20:16:00,16.3,5.5,30.38,WNW,291,5.0,10.0,62,0.00,,,0.00,Wunderground v.1.15,2013-02-02 01:16:00,
2013-02-01 20:21:00,16.2,5.8,30.38,NW,310,5.0,5.0,63,0.00,,,0.00,Wunderground v.1.15,2013-02-02 01:21:00,
2013-02-01 20:27:00,16.2,5.5,30.38,NW,307,6.0,10.0,62,0.00,,,0.00,Wunderground v.1.15,2013-02-02 01:27:00,
2013-02-01 20:32:00,16.2,5.8,30.37,WNW,300,7.0,8.0,63,0.00,,,0.00,Wunderground v.1.15,2013-02-02 01:32:00,
2013-02-01 20:37:00,16.1,5.4,30.38,WNW,298,6.0,8.0,62,0.00,,,0.00,Wunderground v.1.15,2013-02-02 01:37:00,
2013-02-01 20:43:00,16.0,5.3,30.38,WNW,288,6.0,9.0,62,0.00,,,0.00,Wunderground v.1.15,2013-02-02 01:43:00,
2013-02-01 20:48:00,16.2,5.1,30.37,NW,305,8.0,17.0,61,0.00,,,0.00,Wunderground v.1.15,2013-02-02 01:48:00,
2013-02-01 20:53:00,16.2,5.5,30.38,WNW,303,9.0,9.0,62,0.00,,,0.00,Wunderground v.1.15,2013-02-02 01:53:00,
2013-02-01 20:59:00,16.1,5.0,30.38,WNW,298,9.0,10.0,61,0.00,,,0.00,Wunderground v.1.15,2013-02-02 01:59:00,
2013-02-01 21:04:00,16.1,5.4,30.38,WNW,290,7.0,8.0,62,0.00,,,0.00,Wunderground v.1.15,2013-02-02 02:04:00,
2013-02-01 21:09:00,16.0,5.3,30.38,West,279,6.0,10.0,62,0.00,,,0.00,Wunderground v.1.15,2013-02-02 02:09:00,
2013-02-01 21:14:00,16.1,5.4,30.39,WNW,290,7.0,10.0,62,0.00,,,0.00,Wunderground v.1.15,2013-02-02 02:14:00,
2013-02-01 21:20:00,16.1,5.0,30.39,West,271,7.0,9.0,61,0.00,,,0.00,Wunderground v.1.15,2013-02-02 02:20:00,
2013-02-01 21:25:00,16.1,5.4,30.39,West,279,6.0,9.0,62,0.00,,,0.00,Wunderground v.1.15,2013-02-02 02:25:00,
2013-02-01 21:31:00,16.1,5.4,30.39,WNW,290,7.0,7.0,62,0.00,,,0.00,Wunderground v.1.15,2013-02-02 02:31:00,
2013-02-01 21:36:00,16.1,5.4,30.39,WNW,283,7.0,7.0,62,0.00,,,0.00,Wunderground v.1.15,2013-02-02 02:36:00,
2013-02-01 21:41:00,16.1,5.0,30.39,West,265,6.0,7.0,61,0.00,,,0.00,Wunderground v.1.15,2013-02-02 02:41:00,